Time,TemperatureF,DewpointF,PressureIn,WindDirection,WindDirectionDegrees,WindSpeedMPH,WindSpeedGustMPH,Humidity,HourlyPrecipIn,Conditions,Clouds,dailyrainin,SoftwareType,DateUTC
2013-05-30 00:04:00,51.4,49.0,29.99,West,275,2.0,9.0,92,0.00,,,0.00,weatherlink.com 1.10,2013-05-30 07:04:00,
2013-05-30 00:19:00,51.1,49.0,29.99,NW,307,2.0,6.0,93,0.00,,,0.00,weatherlink.com 1.10,2013-05-30 07:19:00,
2013-05-30 00:34:00,51.0,49.0,29.98,NNE,32,2.0,12.0,92,0.00,,,0.00,weatherlink.com 1.10,2013-05-30 07:34:00,
2013-05-30 00:49:00,49.7,48.0,29.98,NNE,16,1.0,5.0,93,0.00,,,0.00,weatherlink.com 1.10,2013-05-30 07:49:00,
2013-05-30 01:04:00,49.4,48.0,29.97,NW,312,1.0,5.0,95,0.00,,,0.00,weatherlink.com 1.10,2013-05-30 08:04:00,
2013-05-30 01:19:00,50.3,49.0,29.97,WNW,284,3.0,6.0,94,0.00,,,0.00,weatherlink.com 1.10,2013-05-30 08:19:00,
2013-05-30 01:34:00,50.8,49.0,29.97,NW,304,2.0,6.0,93,0.00,,,0.00,weatherlink.com 1.10,2013-05-30 08:34:00,
2013-05-30 01:49:00,50.9,49.0,29.98,West,274,5.0,9.0,93,0.00,,,0.00,weatherlink.com 1.10,2013-05-30 08:49:00,
2013-05-30 02:04:00,51.0,49.0,29.97,West,270,6.0,11.0,93,0.00,,,0.00,weatherlink.com 1.10,2013-05-30 09:04:00,
2013-05-30 02:19:00,50.8,49.0,29.97,West,274,4.0,10.0,94,0.00,,,0.00,weatherlink.com 1.10,2013-05-30 09:19:00,
2013-05-30 02:34:00,50.5,49.0,29.97,WNW,301,2.0,11.0,94,0.00,,,0.00,weatherlink.com 1.10,2013-05-30 09:34:00,
2013-05-30 02:49:00,50.5,49.0,29.97,WNW,293,3.0,8.0,94,0.00,,,0.00,weatherlink.com 1.10,2013-05-30 09:49:00,
2013-05-30 03:04:00,49.6,48.0,29.97,NNW,345,0.0,6.0,93,0.00,,,0.00,weatherlink.com 1.10,2013-05-30 10:04:00,
2013-05-30 03:19:00,48.3,47.0,29.97,NW,312,2.0,3.0,95,0.00,,,0.00,weatherlink.com 1.10,2013-05-30 10:19:00,
2013-05-30 03:34:00,48.4,47.0,29.97,NW,318,0.0,5.0,95,0.00,,,0.00,weatherlink.com 1.10,2013-05-30 10:34:00,
2013-05-30 03:49:00,48.3,47.0,29.97,NW,308,2.0,5.0,96,0.00,,,0.00,weatherlink.com 1.10,2013-05-30 10:49:00,
2013-05-30 04:04:00,48.7,48.0,29.98,NW,307,0.0,5.0,96,0.00,,,0.00,weatherlink.com 1.10,2013-05-30 11:04:00,
2013-05-30 04:19:00,49.0,48.0,29.98,WNW,284,3.0,6.0,96,0.00,,,0.00,weatherlink.com 1.10,2013-05-30 11:19:00,
2013-05-30 04:34:00,50.3,49.0,29.98,WNW,295,5.0,10.0,96,0.00,,,0.00,weatherlink.com 1.10,2013-05-30 11:34:00,
2013-05-30 04:49:00,50.4,49.0,29.97,WNW,291,6.0,15.0,94,0.00,,,0.00,weatherlink.com 1.10,2013-05-30 11:49:00,
2013-05-30 05:04:00,50.5,49.0,29.97,WNW,297,5.0,13.0,94,0.00,,,0.00,weatherlink.com 1.10,2013-05-30 12:04:00,
2013-05-30 05:20:00,50.5,49.0,29.97,West,271,8.0,14.0,94,0.00,,,0.00,weatherlink.com 1.10,2013-05-30 12:20:00,
2013-05-30 05:35:00,50.4,49.0,29.98,WNW,283,7.0,13.0,93,0.00,,,0.00,weatherlink.com 1.10,2013-05-30 12:35:00,
2013-05-30 05:50:00,50.1,49.0,29.98,WNW,301,4.0,12.0,94,0.00,,,0.00,weatherlink.com 1.10,2013-05-30 12:50:00,
2013-05-30 06:05:00,50.0,48.0,29.98,West,277,4.0,12.0,94,0.00,,,0.00,weatherlink.com 1.10,2013-05-30 13:05:00,
2013-05-30 06:20:00,50.1,49.0,29.99,WNW,284,8.0,13.0,94,0.00,,,0.00,weatherlink.com 1.10,2013-05-30 13:20:00,
2013-05-30 06:35:00,50.3,48.0,29.99,WNW,297,3.0,11.0,93,0.00,,,0.00,weatherlink.com 1.10,2013-05-30 13:35:00,
2013-05-30 06:50:00,50.8,49.0,30.00,NW,307,4.0,13.0,93,0.00,,,0.00,weatherlink.com 1.10,2013-05-30 13:50:00,
2013-05-30 07:05:00,51.3,49.0,30.00,NW,311,3.0,12.0,93,0.00,,,0.00,weatherlink.com 1.10,2013-05-30 14:05:00,
2013-05-30 07:19:00,51.6,49.0,30.00,NW,309,4.0,12.0,92,0.00,,,0.00,weatherlink.com 1.10,2013-05-30 14:19:00,
2013-05-30 07:35:00,51.8,49.0,30.01,NW,307,7.0,13.0,91,0.00,,,0.00,weatherlink.com 1.10,2013-05-30 14:35:00,
2013-05-30 07:50:00,52.5,50.0,30.01,WNW,303,5.0,9.0,91,0.00,,,0.00,weatherlink.com 1.10,2013-05-30 14:50:00,
2013-05-30 08:05:00,53.2,50.0,30.01,North,8,1.0,10.0,90,0.00,,,0.00,weatherlink.com 1.10,2013-05-30 15:05:00,
2013-05-30 08:20:00,53.5,50.0,30.02,WNW,301,6.0,8.0,88,0.00,,,0.00,weatherlink.com 1.10,2013-05-30 15:20:00,
2013-05-30 08:36:00,53.8,50.0,30.02,WNW,297,4.0,11.0,88,0.00,,,0.00,weatherlink.com 1.10,2013-05-30 15:36:00,
2013-05-30 08:50:00,54.3,50.0,30.02,NW,321,8.0,16.0,85,0.00,,,0.00,weatherlink.com 1.10,2013-05-30 15:50:00,
2013-05-30 09:05:00,54.5,50.0,30.02,West,277,7.0,16.0,85,0.00,,,0.00,weatherlink.com 1.10,2013-05-30 16:05:00,
2013-05-30 09:20:00,55.3,51.0,30.02,NNW,335,8.0,15.0,86,0.00,,,0.00,weatherlink.com 1.10,2013-05-30 16:20:00,
2013-05-30 09:35:00,56.0,51.0,30.03,WNW,303,9.0,14.0,83,0.00,,,0.00,weatherlink.com 1.10,2013-05-30 16:35:00,
2013-05-30 09:50:00,55.8,52.0,30.03,WNW,300,8.0,17.0,86,0.00,,,0.00,weatherlink.com 1.10,2013-05-30 16:50:00,
2013-05-30 10:05:00,56.0,51.0,30.03,NW,311,15.0,17.0,83,0.00,,,0.00,weatherlink.com 1.10,2013-05-30 17:05:00,
2013-05-30 10:20:00,56.6,51.0,30.03,West,281,6.0,13.0,82,0.00,,,0.00,weatherlink.com 1.10,2013-05-30 17:20:00,
2013-05-30 10:35:00,57.5,52.0,30.02,WNW,301,7.0,12.0,81,0.00,,,0.00,weatherlink.com 1.10,2013-05-30 17:35:00,
2013-05-30 10:50:00,57.9,51.0,30.03,NW,305,9.0,16.0,79,0.00,,,0.00,weatherlink.com 1.10,2013-05-30 17:50:00,
2013-05-30 11:05:00,58.0,52.0,30.03,WSW,250,6.0,18.0,80,0.00,,,0.00,weatherlink.com 1.10,2013-05-30 18:05:00,
2013-05-30 11:20:00,58.4,52.0,30.03,NW,306,6.0,13.0,80,0.00,,,0.00,weatherlink.com 1.10,2013-05-30 18:20:00,
2013-05-30 11:35:00,58.7,53.0,30.03,WNW,295,9.0,17.0,80,0.00,,,0.00,weatherlink.com 1.10,2013-05-30 18:35:00,
2013-05-30 11:50:00,58.3,51.0,30.03,WNW,297,11.0,16.0,78,0.00,,,0.00,weatherlink.com 1.10,2013-05-30 18:50:00,
2013-05-30 12:05:00,59.0,51.0,30.03,WNW,287,7.0,15.0,76,0.00,,,0.00,weatherlink.com 1.10,2013-05-30 19:05:00,
2013-05-30 12:20:00,59.0,53.0,30.03,WNW,288,8.0,18.0,79,0.00,,,0.00,weatherlink.com 1.10,2013-05-30 19:20:00,
2013-05-30 12:35:00,59.8,53.0,30.03,NW,311,6.0,14.0,78,0.00,,,0.00,weatherlink.com 1.10,2013-05-30 19:35:00,
2013-05-30 12:50:00,60.1,53.0,30.03,WNW,283,12.0,21.0,77,0.00,,,0.00,weatherlink.com 1.10,2013-05-30 19:50:00,
2013-05-30 13:05:00,59.9,53.0,30.03,West,276,14.0,22.0,77,0.00,,,0.00,weatherlink.com 1.10,2013-05-30 20:05:00,
2013-05-30 13:20:00,59.8,53.0,30.03,WNW,291,16.0,18.0,77,0.00,,,0.00,weatherlink.com 1.10,2013-05-30 20:20:00,
2013-05-30 13:35:00,59.3,52.0,30.03,WNW,293,14.0,21.0,76,0.00,,,0.00,weatherlink.com 1.10,2013-05-30 20:35:00,
2013-05-30 13:50:00,59.9,53.0,30.03,NW,310,9.0,18.0,77,0.00,,,0.00,weatherlink.com 1.10,2013-05-30 20:50:00,
2013-05-30 14:05:00,60.2,52.0,30.02,NW,314,12.0,19.0,75,0.00,,,0.00,weatherlink.com 1.10,2013-05-30 21:05:00,
2013-05-30 14:20:00,60.1,53.0,30.02,WNW,291,11.0,18.0,77,0.00,,,0.00,weatherlink.com 1.10,2013-05-30 21:20:00,
2013-05-30 14:36:00,59.8,53.0,30.02,NNW,329,3.0,18.0,77,0.00,,,0.00,weatherlink.com 1.10,2013-05-30 21:36:00,
2013-05-30 14:51:00,59.5,52.0,30.02,NW,311,13.0,20.0,77,0.00,,,0.00,weatherlink.com 1.10,2013-05-30 21:51:00,
2013-05-30 15:06:00,59.4,52.0,30.02,NW,314,11.0,16.0,77,0.00,,,0.00,weatherlink.com 1.10,2013-05-30 22:06:00,
2013-05-30 15:21:00,59.6,53.0,30.02,WNW,298,12.0,18.0,78,0.00,,,0.00,weatherlink.com 1.10,2013-05-30 22:21:00,
2013-05-30 15:36:00,59.6,52.0,30.02,NNW,328,8.0,18.0,76,0.00,,,0.00,weatherlink.com 1.10,2013-05-30 22:36:00,
2013-05-30 15:51:00,59.8,52.0,30.02,NW,308,14.0,19.0,75,0.00,,,0.00,weatherlink.com 1.10,2013-05-30 22:51:00,
2013-05-30 16:06:00,59.5,52.0,30.01,WNW,288,9.0,19.0,75,0.00,,,0.00,weatherlink.com 1.10,2013-05-30 23:06:00,
2013-05-30 16:21:00,59.4,52.0,30.00,WNW,294,11.0,24.0,77,0.00,,,0.00,weatherlink.com 1.10,2013-05-30 23:21:00,
2013-05-30 16:36:00,59.1,52.0,30.00,West,276,15.0,20.0,77,0.00,,,0.00,weatherlink.com 1.10,2013-05-30 23:36:00,
2013-05-30 16:51:00,58.2,51.0,30.00,WNW,297,14.0,25.0,78,0.00,,,0.00,weatherlink.com 1.10,2013-05-30 23:51:00,
2013-05-30 17:06:00,57.9,51.0,30.00,West,276,12.0,22.0,79,0.00,,,0.00,weatherlink.com 1.10,2013-05-31 00:06:00,
2013-05-30 17:21:00,58.7,53.0,30.00,WNW,303,19.0,22.0,80,0.00,,,0.00,weatherlink.com 1.10,2013-05-31 00:21:00,
2013-05-30 17:36:00,57.8,51.0,30.00,West,266,8.0,25.0,78,0.00,,,0.00,weatherlink.com 1.10,2013-05-31 00:36:00,
2013-05-30 17:51:00,57.9,51.0,30.00,West,281,14.0,21.0,77,0.00,,,0.00,weatherlink.com 1.10,2013-05-31 00:51:00,
2013-05-30 18:06:00,57.6,51.0,30.00,WNW,290,11.0,22.0,79,0.00,,,0.00,weatherlink.com 1.10,2013-05-31 01:06:00,
2013-05-30 18:21:00,57.2,51.0,30.00,WNW,288,8.0,20.0,79,0.00,,,0.00,weatherlink.com 1.10,2013-05-31 01:21:00,
2013-05-30 18:36:00,57.2,50.0,29.99,WNW,303,6.0,18.0,77,0.00,,,0.00,weatherlink.com 1.10,2013-05-31 01:36:00,
2013-05-30 18:51:00,57.1,51.0,29.99,West,274,14.0,20.0,80,0.00,,,0.00,weatherlink.com 1.10,2013-05-31 01:51:00,
2013-05-30 19:06:00,56.8,50.0,29.99,West,269,13.0,17.0,78,0.00,,,0.00,weatherlink.com 1.10,2013-05-31 02:06:00,
2013-05-30 19:21:00,56.7,51.0,29.99,WNW,290,11.0,18.0,80,0.00,,,0.00,weatherlink.com 1.10,2013-05-31 02:21:00,
2013-05-30 19:36:00,56.3,50.0,30.00,NNW,331,6.0,15.0,80,0.00,,,0.00,weatherlink.com 1.10,2013-05-31 02:36:00,
2013-05-30 19:51:00,55.3,50.0,30.00,NW,304,8.0,16.0,81,0.00,,,0.00,weatherlink.com 1.10,2013-05-31 02:51:00,
2013-05-30 20:06:00,54.8,49.0,30.00,NNW,332,6.0,18.0,81,0.00,,,0.00,weatherlink.com 1.10,2013-05-31 03:06:00,
2013-05-30 20:21:00,53.9,49.0,30.00,WNW,287,9.0,15.0,83,0.00,,,0.00,weatherlink.com 1.10,2013-05-31 03:21:00,
2013-05-30 20:36:00,53.5,49.0,29.99,WNW,284,5.0,16.0,84,0.00,,,0.00,weatherlink.com 1.10,2013-05-31 03:36:00,
2013-05-30 20:51:00,53.1,49.0,30.00,WNW,282,5.0,13.0,85,0.00,,,0.00,weatherlink.com 1.10,2013-05-31 03:51:00,
2013-05-30 21:06:00,52.8,49.0,30.00,WNW,297,10.0,10.0,86,0.00,,,0.00,weatherlink.com 1.10,2013-05-31 04:06:00,
2013-05-30 21:21:00,52.4,49.0,30.00,NW,316,4.0,8.0,87,0.00,,,0.00,weatherlink.com 1.10,2013-05-31 04:21:00,
2013-05-30 21:36:00,52.2,49.0,30.00,WNW,301,6.0,10.0,88,0.00,,,0.00,weatherlink.com 1.10,2013-05-31 04:36:00,
2013-05-30 21:51:00,52.2,49.0,30.01,WNW,294,2.0,9.0,89,0.00,,,0.00,weatherlink.com 1.10,2013-05-31 04:51:00,
2013-05-30 22:06:00,52.6,49.0,30.01,WNW,297,5.0,11.0,88,0.00,,,0.00,weatherlink.com 1.10,2013-05-31 05:06:00,
2013-05-30 22:21:00,52.1,49.0,30.02,WNW,302,4.0,7.0,88,0.00,,,0.00,weatherlink.com 1.10,2013-05-31 05:21:00,
2013-05-30 22:36:00,51.5,48.0,30.02,NNE,20,2.0,6.0,88,0.00,,,0.00,weatherlink.com 1.10,2013-05-31 05:36:00,
2013-05-30 22:51:00,50.8,48.0,30.02,North,11,0.0,5.0,89,0.00,,,0.00,weatherlink.com 1.10,2013-05-31 05:51:00,
2013-05-30 23:06:00,50.4,48.0,30.02,NW,321,1.0,3.0,90,0.00,,,0.00,weatherlink.com 1.10,2013-05-31 06:06:00,
2013-05-30 23:21:00,50.4,48.0,30.02,North,5,2.0,6.0,91,0.00,,,0.00,weatherlink.com 1.10,2013-05-31 06:21:00,
2013-05-30 23:36:00,50.2,47.0,30.02,North,1,1.0,5.0,90,0.00,,,0.00,weatherlink.com 1.10,2013-05-31 06:36:00,
2013-05-30 23:51:00,50.0,48.0,30.02,North,9,0.0,4.0,91,0.00,,,0.00,weatherlink.com 1.10,2013-05-31 06:51:00,